User: anonymous   Login
Location: Newark
(42.7133°N, 87.7910°W)
Time: 15:24:58
(UTC+00:00)
Language:

Courier 1B Rocket - Orbit

View from above orbital plane
View from above orbital plane
View from above satellite
View from above satellite

Ground track
Ground track

The orbit data is extracted from the following two-line orbital elements,

1    59U 60013B   19260.21455246  .00000113  00000-0  32089-4 0  9992
2    59  28.2472 186.9006 0189304 144.4220 216.9108 13.52971203909944
Epoch (UTC): 17 September 2019 05:08:57
Eccentricity: 0.0189304
inclination: 28.2472°
perigee height: 920 km
apogee height: 1202 km
right ascension of ascending node: 186.9006°
argument of perigee: 144.4220°
revolutions per day: 13.52971203
mean anomaly at epoch: 216.9108°
orbit number at epoch: 90994

The dashed part of the orbit path shows where the satellite is in the earth's shadow,  

DLR